689  
ASUS43 KGRB 271211  
RWRGRB  
 
NORTH-CENTRAL AND NORTHEAST WISCONSIN REGIONAL WEATHER ROUNDUP  
NATIONAL WEATHER SERVICE GREEN BAY WI  
700 AM CDT TUE OCT 27 2020  
 
WIZ005-009-010>012-018-019-271300-  
NORTH CENTRAL WISCONSIN  
 
CITY SKY/WX TMP DP RH WIND PRES REMARKS
 
IRONWOOD CLEAR 14 10 84 SW8 30.22F WCI 3  
MANITOWISH WTR CLEAR 12 10 92 SW3 30.21F  
ARBOR VITAE CLEAR 11 9 91 SW5 30.22S WCI 3  
EAGLE RIVER CLEAR 13 12 94 SW3 30.22S  
LAND O LAKES CLEAR 8 5 87 CALM 30.22S  
RHINELANDER CLEAR 11 8 88 CALM 30.23F  
PHILLIPS CLEAR 12 10 92 CALM 30.23F  
ANTIGO PTCLDY 18 15 88 CALM 30.25S  
TOMAHAWK CLEAR 7 5 90 CALM 30.25F  
MERRILL CLEAR 12 10 92 CALM 30.26F  

 
 
WIZ013-073-271300-  
NORTHEAST WISCONSIN  
 
CITY SKY/WX TMP DP RH WIND PRES REMARKS
 
IRON MOUNTAIN CLEAR 19 13 77 CALM 30.24F  
MARINETTE MOCLDY 25 23 92 CALM 30.31R  
OCONTO MOCLDY 26 20 80 W5 30.31R  

 
 
WIZ017-030-035>037-045-271300-  
CENTRAL WISCONSIN  
 
CITY SKY/WX TMP DP RH WIND PRES REMARKS
 
MEDFORD CLEAR 14 12 91 CALM 30.25F  
WAUSAU CLEAR 21 17 84 W6 30.26S  
MOSINEE CLEAR 21 16 79 W5 30.28S  
MARSHFIELD CLEAR 20 15 81 W3 30.27F  
WISC RAPIDS PTCLDY 24 17 74 W3 30.31S  
STEVENS POINT PTCLDY 22 17 79 CALM 30.30S  
WAUPACA MOCLDY 27 22 80 CALM 30.31F  
SHAWANO MOCLDY 27 20 75 CALM 30.30R  
CLINTONVILLE MOCLDY 26 19 77 CALM 30.30F  
WAUTOMA PTCLDY 24 22 91 CALM 30.31F  

 
 
WIZ038-039-048-051-271300-  
FOX VALLEY  
 
CITY SKY/WX TMP DP RH WIND PRES REMARKS
 
NWS GREEN BAY MOCLDY 28 20 71 W5 30.31R  
APPLETON MOCLDY 27 16 63 W5 30.29R  
OSHKOSH CLOUDY 28 20 71 W3 30.31R  
FOND DU LAC CLOUDY 29 20 69 CALM 30.31S  

 
 
WIZ022-050-052-271300-  
EAST CENTRAL WISCONSIN  
 
CITY SKY/WX TMP DP RH WIND PRES REMARKS
 
EPHRAIM PTSUNNY 29 21 71 CALM 30.27S  
WASHINGTON ISL CLOUDY 30 20 66 CALM 30.27S  
STURGEON BAY MOCLDY 30 25 81 W6 30.30R  
MANITOWOC CLOUDY 28 22 78 W5 30.31R  
SHEBOYGAN CLOUDY 31 20 63 W6 30.31R  

 
 
LMZ563-521-522-541>543-271300-  
LAKESHORE  
 
STATION/POSITION TIME TEMP WIND PRES VSBY WAVE
 
AIR SEA DIR/SP/G HT/PER  
(UTC) (F) (DEG/KT/KT) (MB) (MI) (FT/S)  
SHEBOYGAN LKSHOR 1200 31 280/ 7/ 8 N/A  
KEWAUNEE LKSHORE 1130 31 290/ 3/ 6 1025.0F  
N MID LAKE BUOY 1150 35 52 340/ 8/ 12 1025.9F 1/ 3  
SISTER BAY LKSHO 1129 33 350/ 9/ 10 N/A  
CHAMBERS ISLAND 1140 30 260/ 4/ 7 N/A  
MENOMINEE LKSHOR 1130 27 44 290/ 3/ 5 1025.5R  

 
 
 
CLICK HERE TO GO TO PREVIOUS BULLETINS.

The Nexlab WI Page Main Text Page